Location: Auckland
(36.8670°S, 174.7670°E)
Time: 15:16:12
(UTC+12:00)

Hubble Space Telescope - Pass Details

Date: 01 July 2019
Orbit: 536 x 540 km, 28.5° (Epoch: 15 July)

Event Time Altitude Azimuth Distance (km) Brightness Sun altitude
Exits shadow 05:52:36 - 333° (NNW) 2,285 3.8 -19.8°
Reaches altitude 10° 05:54:46 10° 354° (N) 1,787 3.5 -19.4°
Maximum altitude 05:56:30 12° 19° (NNE) 1,641 3.7 -19.0°
Drops below altitude 10° 05:58:15 10° 45° (NE) 1,791 4.3 -18.7°
Sets 06:01:43 0° 74° (ENE) 2,686 6.1 -18.0°
